Volver al catálogo

STARLINK-37337

ActivoComunicacionesVLEO
NORAD 68953·PAYLOAD·🇺🇸 United States

Lanzado May 1, 2026 desde Cape Canaveral Space Force Station

Loading…

Próximos Pases (próximas 24 horas)

TLE

ActualizadoSource: CelesTrak SupGP

Época: Sep 14, 2026, 21:15 UTC

1 68953C 26099C   26257.88590278 -.00028113  00000+0 -83076-3 0  2576
2 68953  53.1572 102.2751 0001218  82.6832 125.1389 15.34398398    18

Sigue STARLINK-37337 en tiempo real con AllMySat

Download on the App Store